Time,TemperatureF,DewpointF,PressureIn,WindDirection,WindDirectionDegrees,WindSpeedMPH,WindSpeedGustMPH,Humidity,HourlyPrecipIn,Conditions,Clouds,dailyrainin,SoftwareType,DateUTC
2013-04-04 00:00:00,34.0,13.3,30.11,NNE,20,3.5,3.5,42,0.00,CLR,,0.00,WeatherDisplay:10.37,2013-04-04 04:00:00,
2013-04-04 00:05:00,33.6,12.9,30.11,NNE,30,3.5,3.5,42,0.00,CLR,,0.00,WeatherDisplay:10.37,2013-04-04 04:05:00,
2013-04-04 00:10:00,33.4,13.3,30.11,NNE,30,3.5,3.5,43,0.00,CLR,,0.00,WeatherDisplay:10.37,2013-04-04 04:10:00,
2013-04-04 00:15:00,33.1,13.0,30.11,NNE,30,3.5,3.5,43,0.00,CLR,,0.00,WeatherDisplay:10.37,2013-04-04 04:15:00,
2013-04-04 00:20:00,32.7,12.7,30.11,NNE,30,3.5,3.5,43,0.00,CLR,,0.00,WeatherDisplay:10.37,2013-04-04 04:20:00,
2013-04-04 00:25:00,32.5,12.5,30.11,NNE,20,4.6,4.6,43,0.00,CLR,,0.00,WeatherDisplay:10.37,2013-04-04 04:25:00,
2013-04-04 00:30:00,32.5,12.5,30.11,NNE,20,4.6,4.6,43,0.00,CLR,,0.00,WeatherDisplay:10.37,2013-04-04 04:30:00,
2013-04-04 00:35:00,32.5,12.5,30.12,NNE,20,4.6,4.6,43,0.00,CLR,,0.00,WeatherDisplay:10.37,2013-04-04 04:35:00,
2013-04-04 00:40:00,32.2,12.7,30.11,NNE,20,4.6,4.6,44,0.00,CLR,,0.00,WeatherDisplay:10.37,2013-04-04 04:40:00,
2013-04-04 00:45:00,32.2,12.7,30.11,NE,40,3.5,3.5,44,0.00,CLR,,0.00,WeatherDisplay:10.37,2013-04-04 04:45:00,
2013-04-04 00:50:00,32.0,12.5,30.11,NE,40,3.5,3.5,44,0.00,CLR,,0.00,WeatherDisplay:10.37,2013-04-04 04:50:00,
2013-04-04 00:55:00,32.2,12.7,30.11,NE,40,3.5,3.5,44,0.00,CLR,,0.00,WeatherDisplay:10.37,2013-04-04 04:55:00,
2013-04-04 01:00:00,32.2,12.7,30.11,NE,40,3.5,3.5,44,0.00,CLR,,0.00,WeatherDisplay:10.37,2013-04-04 05:00:00,
2013-04-04 01:05:00,31.8,12.9,30.11,NNE,30,3.5,3.5,45,0.00,CLR,,0.00,WeatherDisplay:10.37,2013-04-04 05:05:00,
2013-04-04 01:10:00,31.8,12.9,30.12,NNE,30,3.5,3.5,45,0.00,CLR,,0.00,WeatherDisplay:10.37,2013-04-04 05:10:00,
2013-04-04 01:15:00,31.6,12.7,30.11,NNE,30,3.5,3.5,45,0.00,CLR,,0.00,WeatherDisplay:10.37,2013-04-04 05:15:00,
2013-04-04 01:20:00,31.5,12.5,30.11,NNE,30,3.5,3.5,45,0.00,CLR,,0.00,WeatherDisplay:10.37,2013-04-04 05:20:00,
2013-04-04 01:25:00,31.1,12.7,30.11,ENE,60,3.5,3.5,46,0.00,CLR,,0.00,WeatherDisplay:10.37,2013-04-04 05:25:00,
2013-04-04 01:30:00,30.9,12.5,30.11,ENE,60,3.5,3.5,46,0.00,CLR,,0.00,WeatherDisplay:10.37,2013-04-04 05:30:00,
2013-04-04 01:35:00,30.7,12.9,30.12,ENE,60,3.5,3.5,47,0.00,CLR,,0.00,WeatherDisplay:10.37,2013-04-04 05:35:00,
2013-04-04 01:40:00,30.7,12.9,30.11,ENE,60,3.5,3.5,47,0.00,CLR,,0.00,WeatherDisplay:10.37,2013-04-04 05:40:00,
2013-04-04 01:45:00,30.7,12.9,30.11,North,360,3.5,3.5,47,0.00,CLR,,0.00,WeatherDisplay:10.37,2013-04-04 05:45:00,
2013-04-04 01:50:00,30.7,12.9,30.11,North,360,3.5,3.5,47,0.00,CLR,,0.00,WeatherDisplay:10.37,2013-04-04 05:50:00,
2013-04-04 01:55:00,30.7,12.9,30.11,North,360,3.5,3.5,47,0.00,CLR,,0.00,WeatherDisplay:10.37,2013-04-04 05:55:00,
2013-04-04 02:00:00,30.7,12.9,30.11,North,360,3.5,3.5,47,0.00,CLR,,0.00,WeatherDisplay:10.37,2013-04-04 06:00:00,
2013-04-04 02:05:00,30.7,12.9,30.10,North,360,0.0,0.0,47,0.00,CLR,,0.00,WeatherDisplay:10.37,2013-04-04 06:05:00,
2013-04-04 02:10:00,30.7,12.9,30.11,North,360,0.0,0.0,47,0.00,CLR,,0.00,WeatherDisplay:10.37,2013-04-04 06:10:00,
2013-04-04 02:15:00,30.6,12.7,30.10,North,360,0.0,0.0,47,0.00,CLR,,0.00,WeatherDisplay:10.37,2013-04-04 06:15:00,
2013-04-04 02:20:00,30.4,13.0,30.10,North,360,0.0,0.0,48,0.00,CLR,,0.00,WeatherDisplay:10.37,2013-04-04 06:20:00,
2013-04-04 02:25:00,30.4,13.0,30.10,North,360,0.0,0.0,48,0.00,CLR,,0.00,WeatherDisplay:10.37,2013-04-04 06:25:00,
2013-04-04 02:30:00,30.2,12.8,30.11,North,360,0.0,0.0,48,0.00,CLR,,0.00,WeatherDisplay:10.37,2013-04-04 06:30:00,
2013-04-04 02:35:00,30.2,12.8,30.10,North,360,0.0,0.0,48,0.00,CLR,,0.00,WeatherDisplay:10.37,2013-04-04 06:35:00,
2013-04-04 02:40:00,30.0,12.7,30.11,North,360,0.0,0.0,48,0.00,CLR,,0.00,WeatherDisplay:10.37,2013-04-04 06:40:00,
2013-04-04 02:45:00,29.8,13.0,30.09,North,360,0.0,0.0,49,0.00,CLR,,0.00,WeatherDisplay:10.37,2013-04-04 06:45:00,
2013-04-04 02:50:00,29.8,13.0,30.09,North,360,0.0,0.0,49,0.00,CLR,,0.00,WeatherDisplay:10.37,2013-04-04 06:50:00,
2013-04-04 02:55:00,29.7,12.8,30.10,North,360,0.0,0.0,49,0.00,CLR,,0.00,WeatherDisplay:10.37,2013-04-04 06:55:00,
2013-04-04 03:00:00,29.7,12.8,30.09,North,360,0.0,0.0,49,0.00,CLR,,0.00,WeatherDisplay:10.37,2013-04-04 07:00:00,
2013-04-04 03:05:00,29.7,12.8,30.09,North,350,3.5,3.5,49,0.00,CLR,,0.00,WeatherDisplay:10.37,2013-04-04 07:05:00,
2013-04-04 03:10:00,29.5,12.6,30.10,North,350,3.5,3.5,49,0.00,CLR,,0.00,WeatherDisplay:10.37,2013-04-04 07:10:00,
2013-04-04 03:15:00,29.5,12.6,30.09,North,350,3.5,3.5,49,0.00,CLR,,0.00,WeatherDisplay:10.37,2013-04-04 07:15:00,
2013-04-04 03:20:00,29.1,12.8,30.10,North,350,3.5,0.0,50,0.00,CLR,,0.00,WeatherDisplay:10.37,2013-04-04 07:20:00,
2013-04-04 03:26:00,29.1,12.8,30.09,North,350,0.0,0.0,50,0.00,CLR,,0.00,WeatherDisplay:10.37,2013-04-04 07:26:00,
2013-04-04 03:31:00,28.9,12.6,30.10,North,350,0.0,0.0,50,0.00,CLR,,0.00,WeatherDisplay:10.37,2013-04-04 07:31:00,
2013-04-04 03:36:00,28.8,12.9,30.10,North,350,0.0,0.0,51,0.00,CLR,,0.00,WeatherDisplay:10.37,2013-04-04 07:36:00,
2013-04-04 03:41:00,28.6,12.7,30.10,North,350,0.0,0.0,51,0.00,CLR,,0.00,WeatherDisplay:10.37,2013-04-04 07:41:00,
2013-04-04 03:46:00,28.6,12.7,30.10,North,350,0.0,0.0,51,0.00,CLR,,0.00,WeatherDisplay:10.37,2013-04-04 07:46:00,
2013-04-04 03:51:00,28.2,12.4,30.09,North,350,0.0,0.0,51,0.00,CLR,,0.00,WeatherDisplay:10.37,2013-04-04 07:51:00,
2013-04-04 03:56:00,28.2,12.8,30.09,North,350,0.0,0.0,52,0.00,CLR,,0.00,WeatherDisplay:10.37,2013-04-04 07:56:00,
2013-04-04 04:01:00,28.2,12.8,30.10,North,350,0.0,0.0,52,0.00,CLR,,0.00,WeatherDisplay:10.37,2013-04-04 08:01:00,
2013-04-04 04:06:00,28.0,12.7,30.10,North,350,0.0,0.0,52,0.00,CLR,,0.00,WeatherDisplay:10.37,2013-04-04 08:06:00,
2013-04-04 04:11:00,28.0,12.7,30.09,North,350,0.0,0.0,52,0.00,CLR,,0.00,WeatherDisplay:10.37,2013-04-04 08:11:00,
2013-04-04 04:16:00,28.0,13.1,30.09,North,350,0.0,0.0,53,0.00,CLR,,0.00,WeatherDisplay:10.37,2013-04-04 08:16:00,
2013-04-04 04:21:00,28.0,13.1,30.09,North,350,0.0,0.0,53,0.00,CLR,,0.00,WeatherDisplay:10.37,2013-04-04 08:21:00,
2013-04-04 04:27:00,28.0,13.1,30.09,North,350,0.0,0.0,53,0.00,CLR,,0.00,WeatherDisplay:10.37,2013-04-04 08:27:00,
2013-04-04 04:32:00,28.0,13.1,30.10,North,350,0.0,0.0,53,0.00,CLR,,0.00,WeatherDisplay:10.37,2013-04-04 08:32:00,
2013-04-04 04:37:00,28.0,13.1,30.09,North,350,0.0,0.0,53,0.00,CLR,,0.00,WeatherDisplay:10.37,2013-04-04 08:37:00,
2013-04-04 04:42:00,28.0,13.1,30.10,North,350,0.0,0.0,53,0.00,CLR,,0.00,WeatherDisplay:10.37,2013-04-04 08:42:00,
2013-04-04 04:47:00,28.0,13.1,30.10,North,350,0.0,0.0,53,0.00,CLR,,0.00,WeatherDisplay:10.37,2013-04-04 08:47:00,
2013-04-04 04:52:00,27.9,12.9,30.10,North,350,0.0,0.0,53,0.00,CLR,,0.00,WeatherDisplay:10.37,2013-04-04 08:52:00,
2013-04-04 04:57:00,27.7,13.2,30.09,North,350,0.0,0.0,54,0.00,CLR,,0.00,WeatherDisplay:10.37,2013-04-04 08:57:00,
2013-04-04 05:02:00,27.7,13.2,30.10,North,350,0.0,0.0,54,0.00,CLR,,0.00,WeatherDisplay:10.37,2013-04-04 09:02:00,
2013-04-04 05:07:00,27.7,13.2,30.10,North,350,0.0,0.0,54,0.00,CLR,,0.00,WeatherDisplay:10.37,2013-04-04 09:07:00,
2013-04-04 05:12:00,27.7,13.2,30.10,North,350,0.0,0.0,54,0.00,CLR,,0.00,WeatherDisplay:10.37,2013-04-04 09:12:00,
2013-04-04 05:17:00,27.7,13.2,30.10,North,350,0.0,0.0,54,0.00,CLR,,0.00,WeatherDisplay:10.37,2013-04-04 09:17:00,
2013-04-04 05:22:00,27.5,13.0,30.10,North,350,0.0,0.0,54,0.00,CLR,,0.00,WeatherDisplay:10.37,2013-04-04 09:22:00,
2013-04-04 05:27:00,27.3,12.8,30.10,North,350,0.0,0.0,54,0.00,CLR,,0.00,WeatherDisplay:10.37,2013-04-04 09:27:00,
2013-04-04 05:32:00,27.3,12.8,30.10,North,350,0.0,0.0,54,0.00,CLR,,0.00,WeatherDisplay:10.37,2013-04-04 09:32:00,
2013-04-04 05:37:00,27.3,12.8,30.10,North,350,0.0,0.0,54,0.00,CLR,,0.00,WeatherDisplay:10.37,2013-04-04 09:37:00,
2013-04-04 05:42:00,27.1,12.7,30.10,North,350,0.0,0.0,54,0.00,CLR,,0.00,WeatherDisplay:10.37,2013-04-04 09:42:00,
2013-04-04 05:47:00,27.1,12.7,30.10,North,350,0.0,0.0,54,0.00,CLR,,0.00,WeatherDisplay:10.37,2013-04-04 09:47:00,
2013-04-04 05:52:00,27.1,13.1,30.10,North,350,0.0,0.0,55,0.00,CLR,,0.00,WeatherDisplay:10.37,2013-04-04 09:52:00,
2013-04-04 05:57:00,27.1,13.1,30.10,North,350,0.0,0.0,55,0.00,CLR,,0.00,WeatherDisplay:10.37,2013-04-04 09:57:00,
2013-04-04 06:02:00,27.1,13.1,30.10,North,350,0.0,0.0,55,0.00,CLR,,0.00,WeatherDisplay:10.37,2013-04-04 10:02:00,
2013-04-04 06:07:00,27.1,13.1,30.10,North,350,0.0,0.0,55,0.00,CLR,,0.00,WeatherDisplay:10.37,2013-04-04 10:07:00,
2013-04-04 06:12:00,27.3,13.3,30.09,North,350,0.0,0.0,55,0.00,CLR,,0.00,WeatherDisplay:10.37,2013-04-04 10:12:00,
2013-04-04 06:17:00,27.3,13.3,30.09,North,350,0.0,0.0,55,0.00,CLR,,0.00,WeatherDisplay:10.37,2013-04-04 10:17:00,
2013-04-04 06:22:00,27.3,13.7,30.08,North,350,0.0,0.0,56,0.00,CLR,,0.00,WeatherDisplay:10.37,2013-04-04 10:22:00,
2013-04-04 06:28:00,27.3,13.7,30.09,North,350,0.0,0.0,56,0.00,CLR,,0.00,WeatherDisplay:10.37,2013-04-04 10:28:00,
2013-04-04 06:33:00,27.1,13.5,30.09,North,10,3.5,3.5,56,0.00,CLR,,0.00,WeatherDisplay:10.37,2013-04-04 10:33:00,
2013-04-04 06:38:00,27.1,13.5,30.09,North,10,3.5,3.5,56,0.00,CLR,,0.00,WeatherDisplay:10.37,2013-04-04 10:38:00,
2013-04-04 06:43:00,27.1,13.5,30.09,North,10,0.0,0.0,56,0.00,CLR,,0.00,WeatherDisplay:10.37,2013-04-04 10:43:00,
2013-04-04 06:48:00,27.1,13.9,30.09,North,10,0.0,0.0,57,0.00,CLR,,0.00,WeatherDisplay:10.37,2013-04-04 10:48:00,
2013-04-04 06:53:00,27.1,13.9,30.10,North,10,0.0,0.0,57,0.00,CLR,,0.00,WeatherDisplay:10.37,2013-04-04 10:53:00,
2013-04-04 06:58:00,27.1,13.9,30.10,North,10,0.0,0.0,57,0.00,CLR,,0.00,WeatherDisplay:10.37,2013-04-04 10:58:00,
2013-04-04 07:03:00,27.1,13.9,30.09,North,10,0.0,0.0,57,0.00,CLR,,0.00,WeatherDisplay:10.37,2013-04-04 11:03:00,
2013-04-04 07:08:00,27.1,13.9,30.10,North,10,0.0,0.0,57,0.00,CLR,,0.00,WeatherDisplay:10.37,2013-04-04 11:08:00,
2013-04-04 07:13:00,27.1,13.9,30.11,North,10,0.0,0.0,57,0.00,CLR,,0.00,WeatherDisplay:10.37,2013-04-04 11:13:00,
2013-04-04 07:18:00,27.1,13.9,30.11,North,10,0.0,0.0,57,0.00,CLR,,0.00,WeatherDisplay:10.37,2013-04-04 11:18:00,
2013-04-04 07:23:00,27.1,13.9,30.11,North,10,0.0,0.0,57,0.00,CLR,,0.00,WeatherDisplay:10.37,2013-04-04 11:23:00,
2013-04-04 07:28:00,27.3,14.1,30.11,North,10,0.0,0.0,57,0.00,CLR,,0.00,WeatherDisplay:10.37,2013-04-04 11:28:00,
2013-04-04 07:33:00,27.5,14.2,30.11,North,10,0.0,0.0,57,0.00,CLR,,0.00,WeatherDisplay:10.37,2013-04-04 11:33:00,
2013-04-04 07:38:00,27.7,14.4,30.11,North,10,0.0,0.0,57,0.00,CLR,,0.00,WeatherDisplay:10.37,2013-04-04 11:38:00,
2013-04-04 07:43:00,27.9,14.6,30.11,North,10,0.0,0.0,57,0.00,CLR,,0.00,WeatherDisplay:10.37,2013-04-04 11:43:00,
2013-04-04 07:48:00,28.0,14.3,30.11,North,10,0.0,0.0,56,0.00,CLR,,0.00,WeatherDisplay:10.37,2013-04-04 11:48:00,
2013-04-04 07:53:00,28.2,14.5,30.12,North,10,0.0,0.0,56,0.00,CLR,,0.00,WeatherDisplay:10.37,2013-04-04 11:53:00,
2013-04-04 07:58:00,28.6,14.9,30.12,North,10,0.0,0.0,56,0.00,CLR,,0.00,WeatherDisplay:10.37,2013-04-04 11:58:00,
2013-04-04 08:03:00,28.9,14.8,30.12,North,10,0.0,0.0,55,0.00,CLR,,0.00,WeatherDisplay:10.37,2013-04-04 12:03:00,
2013-04-04 08:08:00,29.1,14.9,30.12,North,10,0.0,0.0,55,0.00,CLR,,0.00,WeatherDisplay:10.37,2013-04-04 12:08:00,
2013-04-04 08:13:00,29.5,15.3,30.12,North,10,0.0,0.0,55,0.00,CLR,,0.00,WeatherDisplay:10.37,2013-04-04 12:13:00,
2013-04-04 08:18:00,29.5,15.3,30.12,North,10,0.0,0.0,55,0.00,CLR,,0.00,WeatherDisplay:10.37,2013-04-04 12:18:00,
2013-04-04 08:23:00,29.8,16.0,30.12,North,10,0.0,0.0,56,0.00,CLR,,0.00,WeatherDisplay:10.37,2013-04-04 12:23:00,
2013-04-04 08:28:00,30.0,16.2,30.12,North,10,0.0,0.0,56,0.00,CLR,,0.00,WeatherDisplay:10.37,2013-04-04 12:28:00,
2013-04-04 08:33:00,30.2,16.4,30.12,North,10,0.0,0.0,56,0.00,CLR,,0.00,WeatherDisplay:10.37,2013-04-04 12:33:00,
2013-04-04 08:38:00,30.2,16.4,30.12,North,10,0.0,0.0,56,0.00,CLR,,0.00,WeatherDisplay:10.37,2013-04-04 12:38:00,
2013-04-04 08:43:00,30.2,16.4,30.12,North,10,0.0,0.0,56,0.00,CLR,,0.00,WeatherDisplay:10.37,2013-04-04 12:43:00,
2013-04-04 08:48:00,30.4,16.5,30.12,North,10,0.0,0.0,56,0.00,CLR,,0.00,WeatherDisplay:10.37,2013-04-04 12:48:00,
2013-04-04 08:53:00,30.4,16.5,30.12,North,10,0.0,0.0,56,0.00,CLR,,0.00,WeatherDisplay:10.37,2013-04-04 12:53:00,
2013-04-04 08:58:00,30.6,17.1,30.12,North,10,0.0,0.0,57,0.00,CLR,,0.00,WeatherDisplay:10.37,2013-04-04 12:58:00,
2013-04-04 09:03:00,30.7,17.3,30.12,North,10,0.0,0.0,57,0.00,CLR,,0.00,WeatherDisplay:10.37,2013-04-04 13:03:00,
2013-04-04 09:08:00,30.7,16.9,30.12,North,10,0.0,0.0,56,0.00,CLR,,0.00,WeatherDisplay:10.37,2013-04-04 13:08:00,
2013-04-04 09:13:00,31.3,17.4,30.12,North,10,0.0,0.0,56,0.00,CLR,,0.00,WeatherDisplay:10.37,2013-04-04 13:13:00,
2013-04-04 09:18:00,31.8,17.9,30.12,North,10,0.0,0.0,56,0.00,CLR,,0.00,WeatherDisplay:10.37,2013-04-04 13:18:00,
2013-04-04 09:23:00,32.7,18.7,30.12,North,10,0.0,0.0,56,0.00,CLR,,0.00,WeatherDisplay:10.37,2013-04-04 13:23:00,
2013-04-04 09:28:00,33.1,18.2,30.12,North,10,0.0,0.0,54,0.00,CLR,,0.00,WeatherDisplay:10.37,2013-04-04 13:28:00,
2013-04-04 09:33:00,32.9,17.2,30.12,North,10,0.0,0.0,52,0.00,CLR,,0.00,WeatherDisplay:10.37,2013-04-04 13:33:00,
2013-04-04 09:38:00,33.4,17.7,30.12,North,10,0.0,0.0,52,0.00,CLR,,0.00,WeatherDisplay:10.37,2013-04-04 13:38:00,
2013-04-04 09:43:00,33.3,17.1,30.11,SSW,210,3.5,3.5,51,0.00,CLR,,0.00,WeatherDisplay:10.37,2013-04-04 13:43:00,
2013-04-04 09:48:00,33.8,17.1,30.11,SSW,210,3.5,3.5,50,0.00,CLR,,0.00,WeatherDisplay:10.37,2013-04-04 13:48:00,
2013-04-04 09:53:00,34.3,17.6,30.11,SSW,210,3.5,3.5,50,0.00,CLR,,0.00,WeatherDisplay:10.37,2013-04-04 13:53:00,
2013-04-04 09:58:00,34.3,17.1,30.11,SSW,210,3.5,3.5,49,0.00,CLR,,0.00,WeatherDisplay:10.37,2013-04-04 13:58:00,
2013-04-04 10:03:00,34.2,16.5,30.11,South,190,4.6,4.6,48,0.00,CLR,,0.00,WeatherDisplay:10.37,2013-04-04 14:03:00,
2013-04-04 10:08:00,34.3,16.7,30.11,South,190,4.6,4.6,48,0.00,CLR,,0.00,WeatherDisplay:10.37,2013-04-04 14:08:00,
2013-04-04 10:13:00,34.3,16.7,30.11,South,190,4.6,4.6,48,0.00,CLR,,0.00,WeatherDisplay:10.37,2013-04-04 14:13:00,
2013-04-04 10:18:00,35.2,17.5,30.10,South,190,4.6,4.6,48,0.00,CLR,,0.00,WeatherDisplay:10.37,2013-04-04 14:18:00,
2013-04-04 10:23:00,35.4,17.7,30.10,SSE,160,5.8,5.8,48,0.00,CLR,,0.00,WeatherDisplay:10.37,2013-04-04 14:23:00,
2013-04-04 10:28:00,35.2,17.5,30.09,SSE,160,5.8,5.8,48,0.00,CLR,,0.00,WeatherDisplay:10.37,2013-04-04 14:28:00,
2013-04-04 10:33:00,34.9,17.2,30.09,SSE,160,5.8,5.8,48,0.00,CLR,,0.00,WeatherDisplay:10.37,2013-04-04 14:33:00,
2013-04-04 10:38:00,35.4,17.7,30.09,SSE,160,5.8,5.8,48,0.00,CLR,,0.00,WeatherDisplay:10.37,2013-04-04 14:38:00,
2013-04-04 10:43:00,35.4,17.7,30.08,SE,140,6.9,6.9,48,0.00,CLR,,0.00,WeatherDisplay:10.37,2013-04-04 14:43:00,
2013-04-04 10:48:00,36.3,18.5,30.08,SE,140,6.9,6.9,48,0.00,CLR,,0.00,WeatherDisplay:10.37,2013-04-04 14:48:00,
2013-04-04 10:53:00,36.9,19.0,30.09,SE,140,6.9,6.9,48,0.00,CLR,,0.00,WeatherDisplay:10.37,2013-04-04 14:53:00,
2013-04-04 10:58:00,37.2,18.8,30.08,SE,140,6.9,6.9,47,0.00,CLR,,0.00,WeatherDisplay:10.37,2013-04-04 14:58:00,
2013-04-04 11:03:00,37.8,19.3,30.08,SSW,210,8.1,8.1,47,0.00,CLR,,0.00,WeatherDisplay:10.37,2013-04-04 15:03:00,
2013-04-04 11:08:00,37.8,19.3,30.08,SSW,210,8.1,8.1,47,0.00,CLR,,0.00,WeatherDisplay:10.37,2013-04-04 15:08:00,
2013-04-04 11:13:00,38.5,20.0,30.08,SSW,210,8.1,8.1,47,0.00,CLR,,0.00,WeatherDisplay:10.37,2013-04-04 15:13:00,
2013-04-04 11:18:00,38.5,19.0,30.08,SSW,210,8.1,8.1,45,0.00,CLR,,0.00,WeatherDisplay:10.37,2013-04-04 15:18:00,
2013-04-04 11:23:00,38.1,18.1,30.08,South,190,6.9,6.9,44,0.00,CLR,,0.00,WeatherDisplay:10.37,2013-04-04 15:23:00,
2013-04-04 11:28:00,38.5,18.4,30.08,South,190,6.9,6.9,44,0.00,CLR,,0.00,WeatherDisplay:10.37,2013-04-04 15:28:00,
2013-04-04 11:33:00,39.0,18.9,30.08,South,190,6.9,6.9,44,0.00,CLR,,0.00,WeatherDisplay:10.37,2013-04-04 15:33:00,
2013-04-04 11:38:00,39.4,18.2,30.07,South,190,6.9,6.9,42,0.00,CLR,,0.00,WeatherDisplay:10.37,2013-04-04 15:38:00,
2013-04-04 11:43:00,39.6,18.9,30.07,SSW,210,6.9,6.9,43,0.00,CLR,,0.00,WeatherDisplay:10.37,2013-04-04 15:43:00,
2013-04-04 11:48:00,40.3,19.0,30.06,SSW,210,6.9,6.9,42,0.00,CLR,,0.00,WeatherDisplay:10.37,2013-04-04 15:48:00,
2013-04-04 11:53:00,40.6,19.3,30.06,SSW,210,6.9,6.9,42,0.00,CLR,,0.00,WeatherDisplay:10.37,2013-04-04 15:53:00,
2013-04-04 11:58:00,40.8,19.5,30.05,SSW,210,6.9,6.9,42,0.00,CLR,,0.00,WeatherDisplay:10.37,2013-04-04 15:58:00,
2013-04-04 12:03:00,40.6,19.3,30.05,SW,230,4.6,4.6,42,0.00,CLR,,0.00,WeatherDisplay:10.37,2013-04-04 16:03:00,
2013-04-04 12:08:00,40.3,19.0,30.04,SW,230,4.6,4.6,42,0.00,CLR,,0.00,WeatherDisplay:10.37,2013-04-04 16:08:00,
2013-04-04 12:13:00,40.3,19.0,30.04,SW,230,4.6,4.6,42,0.00,CLR,,0.00,WeatherDisplay:10.37,2013-04-04 16:13:00,
2013-04-04 12:18:00,40.8,19.5,30.04,SW,230,4.6,4.6,42,0.00,CLR,,0.00,WeatherDisplay:10.37,2013-04-04 16:18:00,
2013-04-04 12:23:00,41.5,20.1,30.04,SW,230,9.2,9.2,42,0.00,CLR,,0.00,WeatherDisplay:10.37,2013-04-04 16:23:00,
2013-04-04 12:28:00,41.5,19.6,30.04,SW,230,9.2,9.2,41,0.00,CLR,,0.00,WeatherDisplay:10.37,2013-04-04 16:28:00,
2013-04-04 12:33:00,41.7,19.7,30.04,SW,230,9.2,9.2,41,0.00,CLR,,0.00,WeatherDisplay:10.37,2013-04-04 16:33:00,
2013-04-04 12:38:00,42.1,20.6,30.04,SW,230,9.2,9.2,42,0.00,CLR,,0.00,WeatherDisplay:10.37,2013-04-04 16:38:00,
2013-04-04 12:43:00,42.6,20.5,30.04,SW,220,5.8,5.8,41,0.00,CLR,,0.00,WeatherDisplay:10.37,2013-04-04 16:43:00,
2013-04-04 12:48:00,42.6,20.0,30.03,SW,220,5.8,5.8,40,0.00,CLR,,0.00,WeatherDisplay:10.37,2013-04-04 16:48:00,
2013-04-04 12:53:00,42.6,20.0,30.03,SW,220,5.8,5.8,40,0.00,CLR,,0.00,WeatherDisplay:10.37,2013-04-04 16:53:00,
2013-04-04 12:58:00,43.0,20.3,30.02,SW,220,5.8,5.8,40,0.00,CLR,,0.00,WeatherDisplay:10.37,2013-04-04 16:58:00,
2013-04-04 13:03:00,43.2,20.4,30.02,SW,230,5.8,5.8,40,0.00,CLR,,0.00,WeatherDisplay:10.37,2013-04-04 17:03:00,
2013-04-04 13:08:00,43.5,20.8,30.01,SW,230,5.8,5.8,40,0.00,CLR,,0.00,WeatherDisplay:10.37,2013-04-04 17:08:00,
2013-04-04 13:13:00,43.7,20.9,30.01,SW,230,5.8,5.8,40,0.00,CLR,,0.00,WeatherDisplay:10.37,2013-04-04 17:13:00,
2013-04-04 13:18:00,43.5,20.2,30.00,SW,230,5.8,5.8,39,0.00,CLR,,0.00,WeatherDisplay:10.37,2013-04-04 17:18:00,
2013-04-04 13:23:00,43.5,20.2,30.00,South,180,3.5,3.5,39,0.00,CLR,,0.00,WeatherDisplay:10.37,2013-04-04 17:23:00,
2013-04-04 13:28:00,43.9,20.5,30.00,South,180,3.5,3.5,39,0.00,CLR,,0.00,WeatherDisplay:10.37,2013-04-04 17:28:00,
2013-04-04 13:33:00,43.7,20.3,30.00,South,180,3.5,3.5,39,0.00,CLR,,0.00,WeatherDisplay:10.37,2013-04-04 17:33:00,
2013-04-04 13:38:00,43.5,20.2,30.00,South,180,3.5,3.5,39,0.00,CLR,,0.00,WeatherDisplay:10.37,2013-04-04 17:38:00,
2013-04-04 13:43:00,43.9,20.5,29.99,South,180,9.2,9.2,39,0.00,CLR,,0.00,WeatherDisplay:10.37,2013-04-04 17:43:00,
2013-04-04 13:48:00,44.1,20.7,29.99,South,180,9.2,9.2,39,0.00,CLR,,0.00,WeatherDisplay:10.37,2013-04-04 17:48:00,
2013-04-04 13:53:00,44.2,20.8,29.99,South,180,9.2,9.2,39,0.00,CLR,,0.00,WeatherDisplay:10.37,2013-04-04 17:53:00,
2013-04-04 13:58:00,43.9,19.9,29.99,South,180,9.2,9.2,38,0.00,CLR,,0.00,WeatherDisplay:10.37,2013-04-04 17:58:00,
2013-04-04 14:03:00,43.5,19.6,29.99,SW,220,6.9,6.9,38,0.00,CLR,,0.00,WeatherDisplay:10.37,2013-04-04 18:03:00,
2013-04-04 14:08:00,43.5,19.6,29.99,SW,220,6.9,6.9,38,0.00,CLR,,0.00,WeatherDisplay:10.37,2013-04-04 18:08:00,
2013-04-04 14:13:00,43.5,20.2,29.98,SW,220,6.9,6.9,39,0.00,CLR,,0.00,WeatherDisplay:10.37,2013-04-04 18:13:00,
2013-04-04 14:18:00,43.9,19.9,29.98,SW,220,6.9,6.9,38,0.00,CLR,,0.00,WeatherDisplay:10.37,2013-04-04 18:18:00,
2013-04-04 14:23:00,43.5,19.6,29.98,South,190,5.8,5.8,38,0.00,CLR,,0.00,WeatherDisplay:10.37,2013-04-04 18:23:00,
2013-04-04 14:28:00,43.5,19.6,29.98,South,190,5.8,5.8,38,0.00,CLR,,0.00,WeatherDisplay:10.37,2013-04-04 18:28:00,
2013-04-04 14:33:00,43.7,19.7,29.98,South,190,5.8,5.8,38,0.00,CLR,,0.00,WeatherDisplay:10.37,2013-04-04 18:33:00,
2013-04-04 14:38:00,43.9,19.9,29.98,South,190,5.8,5.8,38,0.00,CLR,,0.00,WeatherDisplay:10.37,2013-04-04 18:38:00,
2013-04-04 14:43:00,43.7,19.7,29.98,South,190,8.1,8.1,38,0.00,CLR,,0.00,WeatherDisplay:10.37,2013-04-04 18:43:00,
2013-04-04 14:48:00,43.7,19.7,29.98,South,190,8.1,8.1,38,0.00,CLR,,0.00,WeatherDisplay:10.37,2013-04-04 18:48:00,
2013-04-04 14:53:00,43.5,18.9,29.98,South,190,8.1,8.1,37,0.00,CLR,,0.00,WeatherDisplay:10.37,2013-04-04 18:53:00,
2013-04-04 14:58:00,43.7,19.1,29.98,South,190,8.1,8.1,37,0.00,CLR,,0.00,WeatherDisplay:10.37,2013-04-04 18:58:00,
2013-04-04 15:03:00,43.9,19.3,29.97,South,190,9.2,9.2,37,0.00,CLR,,0.00,WeatherDisplay:10.37,2013-04-04 19:03:00,
2013-04-04 15:08:00,43.5,18.9,29.97,South,190,9.2,9.2,37,0.00,CLR,,0.00,WeatherDisplay:10.37,2013-04-04 19:08:00,
2013-04-04 15:13:00,43.5,18.9,29.98,South,190,9.2,9.2,37,0.00,CLR,,0.00,WeatherDisplay:10.37,2013-04-04 19:13:00,
2013-04-04 15:18:00,43.5,18.9,29.97,South,190,9.2,9.2,37,0.00,CLR,,0.00,WeatherDisplay:10.37,2013-04-04 19:18:00,
2013-04-04 15:23:00,43.5,18.9,29.97,SSE,160,6.9,6.9,37,0.00,CLR,,0.00,WeatherDisplay:10.37,2013-04-04 19:23:00,
2013-04-04 15:28:00,43.5,18.3,29.96,SSE,160,6.9,6.9,36,0.00,CLR,,0.00,WeatherDisplay:10.37,2013-04-04 19:28:00,
2013-04-04 15:33:00,43.5,18.3,29.96,SSE,160,6.9,6.9,36,0.00,CLR,,0.00,WeatherDisplay:10.37,2013-04-04 19:33:00,
2013-04-04 15:38:00,43.5,18.3,29.96,SSE,160,6.9,6.9,36,0.00,CLR,,0.00,WeatherDisplay:10.37,2013-04-04 19:38:00,
2013-04-04 15:43:00,43.5,18.3,29.96,South,190,8.1,8.1,36,0.00,CLR,,0.00,WeatherDisplay:10.37,2013-04-04 19:43:00,
2013-04-04 15:48:00,43.3,18.1,29.96,South,190,8.1,8.1,36,0.00,CLR,,0.00,WeatherDisplay:10.37,2013-04-04 19:48:00,
2013-04-04 15:53:00,43.3,18.1,29.96,South,190,8.1,8.1,36,0.00,CLR,,0.00,WeatherDisplay:10.37,2013-04-04 19:53:00,
2013-04-04 15:58:00,43.3,18.1,29.95,South,190,8.1,8.1,36,0.00,CLR,,0.00,WeatherDisplay:10.37,2013-04-04 19:58:00,
2013-04-04 16:03:00,43.3,18.1,29.95,South,170,6.9,6.9,36,0.00,CLR,,0.00,WeatherDisplay:10.37,2013-04-04 20:03:00,
2013-04-04 16:08:00,43.0,17.8,29.95,South,170,6.9,6.9,36,0.00,CLR,,0.00,WeatherDisplay:10.37,2013-04-04 20:08:00,
2013-04-04 16:13:00,43.0,17.8,29.95,South,170,6.9,6.9,36,0.00,CLR,,0.00,WeatherDisplay:10.37,2013-04-04 20:13:00,
2013-04-04 16:18:00,43.2,18.0,29.95,South,170,6.9,6.9,36,0.00,CLR,,0.00,WeatherDisplay:10.37,2013-04-04 20:18:00,
2013-04-04 16:23:00,43.2,18.0,29.95,South,170,8.1,8.1,36,0.00,CLR,,0.00,WeatherDisplay:10.37,2013-04-04 20:23:00,
2013-04-04 16:28:00,43.0,17.8,29.95,South,170,8.1,8.1,36,0.00,CLR,,0.00,WeatherDisplay:10.37,2013-04-04 20:28:00,
2013-04-04 16:33:00,42.8,17.7,29.95,South,170,8.1,8.1,36,0.00,CLR,,0.00,WeatherDisplay:10.37,2013-04-04 20:33:00,
2013-04-04 16:38:00,43.0,17.8,29.94,South,170,8.1,8.1,36,0.00,CLR,,0.00,WeatherDisplay:10.37,2013-04-04 20:38:00,
2013-04-04 16:43:00,43.0,17.8,29.94,SSE,160,9.2,9.2,36,0.00,CLR,,0.00,WeatherDisplay:10.37,2013-04-04 20:43:00,
2013-04-04 16:48:00,43.0,17.8,29.93,SSE,160,9.2,9.2,36,0.00,CLR,,0.00,WeatherDisplay:10.37,2013-04-04 20:48:00,
2013-04-04 16:53:00,43.0,17.8,29.93,SSE,160,9.2,9.2,36,0.00,CLR,,0.00,WeatherDisplay:10.37,2013-04-04 20:53:00,
2013-04-04 16:58:00,42.8,17.7,29.92,SSE,160,9.2,9.2,36,0.00,CLR,,0.00,WeatherDisplay:10.37,2013-04-04 20:58:00,
2013-04-04 17:03:00,42.6,17.5,29.92,SSE,150,8.1,8.1,36,0.00,BKN,,0.00,WeatherDisplay:10.37,2013-04-04 21:03:00,
2013-04-04 17:08:00,42.8,17.7,29.92,SSE,150,8.1,8.1,36,0.00,BKN,,0.00,WeatherDisplay:10.37,2013-04-04 21:08:00,
2013-04-04 17:13:00,42.8,17.7,29.92,SSE,150,8.1,8.1,36,0.00,BKN,,0.00,WeatherDisplay:10.37,2013-04-04 21:13:00,
2013-04-04 17:18:00,43.0,17.8,29.91,SSE,150,8.1,8.1,36,0.00,BKN,,0.00,WeatherDisplay:10.37,2013-04-04 21:18:00,
2013-04-04 17:23:00,42.8,17.7,29.91,SSE,160,6.9,6.9,36,0.00,BKN,,0.00,WeatherDisplay:10.37,2013-04-04 21:23:00,
2013-04-04 17:29:00,42.6,17.5,29.91,SSE,160,6.9,6.9,36,0.00,BKN,,0.00,WeatherDisplay:10.37,2013-04-04 21:29:00,
2013-04-04 17:34:00,42.4,17.3,29.91,SSE,160,6.9,6.9,36,0.00,BKN,,0.00,WeatherDisplay:10.37,2013-04-04 21:34:00,
2013-04-04 17:39:00,42.4,17.3,29.91,SSE,160,6.9,6.9,36,0.00,BKN,,0.00,WeatherDisplay:10.37,2013-04-04 21:39:00,
2013-04-04 17:44:00,42.4,17.3,29.90,SSE,160,8.1,8.1,36,0.00,OVC,,0.00,WeatherDisplay:10.37,2013-04-04 21:44:00,
2013-04-04 17:49:00,42.1,17.6,29.90,SSE,160,8.1,8.1,37,0.00,OVC,,0.00,WeatherDisplay:10.37,2013-04-04 21:49:00,
2013-04-04 17:55:00,42.1,17.6,29.90,SSE,160,8.1,8.1,37,0.00,OVC,,0.00,WeatherDisplay:10.37,2013-04-04 21:55:00,
2013-04-04 18:00:00,42.1,17.6,29.90,SSE,160,8.1,8.1,37,0.00,OVC,,0.00,WeatherDisplay:10.37,2013-04-04 22:00:00,
2013-04-04 18:05:00,42.4,18.0,29.90,South,170,8.1,8.1,37,0.00,OVC,,0.00,WeatherDisplay:10.37,2013-04-04 22:05:00,
2013-04-04 18:10:00,42.4,18.0,29.90,South,170,8.1,8.1,37,0.00,OVC,,0.00,WeatherDisplay:10.37,2013-04-04 22:10:00,
2013-04-04 18:15:00,42.4,18.0,29.90,South,170,8.1,8.1,37,0.00,OVC,,0.00,WeatherDisplay:10.37,2013-04-04 22:15:00,
2013-04-04 18:20:00,42.4,18.0,29.90,South,170,8.1,8.1,37,0.00,OVC,,0.00,WeatherDisplay:10.37,2013-04-04 22:20:00,
2013-04-04 18:25:00,42.4,18.0,29.90,South,170,9.2,9.2,37,0.00,OVC,,0.00,WeatherDisplay:10.37,2013-04-04 22:25:00,
2013-04-04 18:30:00,42.4,18.0,29.90,South,170,9.2,9.2,37,0.00,OVC,,0.00,WeatherDisplay:10.37,2013-04-04 22:30:00,
2013-04-04 18:35:00,42.4,18.0,29.90,South,170,9.2,9.2,37,0.00,OVC,,0.00,WeatherDisplay:10.37,2013-04-04 22:35:00,
2013-04-04 18:40:00,42.4,18.0,29.90,South,170,18.4,18.4,37,0.00,-RA,,0.00,WeatherDisplay:10.37,2013-04-04 22:40:00,
2013-04-04 18:45:00,42.1,17.6,29.90,South,170,18.4,18.4,37,0.00,-RA,,0.00,WeatherDisplay:10.37,2013-04-04 22:45:00,
2013-04-04 18:50:00,42.1,18.3,29.90,South,170,18.4,18.4,38,0.00,-RA,,0.00,WeatherDisplay:10.37,2013-04-04 22:50:00,
2013-04-04 18:55:00,41.9,18.1,29.90,South,170,18.4,18.4,38,0.00,-RA,,0.00,WeatherDisplay:10.37,2013-04-04 22:55:00,
2013-04-04 19:00:00,41.5,18.4,29.90,South,170,18.4,18.4,39,0.00,OVC,,0.00,WeatherDisplay:10.37,2013-04-04 23:00:00,
2013-04-04 19:05:00,41.2,18.7,29.90,South,170,18.4,18.4,40,0.00,OVC,,0.00,WeatherDisplay:10.37,2013-04-04 23:05:00,
2013-04-04 19:10:00,40.8,19.5,29.91,South,170,18.4,18.4,42,0.00,OVC,,0.00,WeatherDisplay:10.37,2013-04-04 23:10:00,
2013-04-04 19:15:00,39.9,20.3,29.91,South,170,18.4,18.4,45,0.00,OVC,,0.00,WeatherDisplay:10.37,2013-04-04 23:15:00,
2013-04-04 19:20:00,39.0,21.0,29.91,South,180,18.4,18.4,48,0.00,-SN,,0.00,WeatherDisplay:10.37,2013-04-04 23:20:00,
2013-04-04 19:25:00,38.1,22.5,29.91,South,180,6.9,6.9,53,0.00,-SN,,0.00,WeatherDisplay:10.37,2013-04-04 23:25:00,
2013-04-04 19:30:00,37.2,22.9,29.91,South,180,6.9,6.9,56,0.00,-SN,,0.00,WeatherDisplay:10.37,2013-04-04 23:30:00,
2013-04-04 19:35:00,36.7,24.1,29.90,South,180,6.9,6.9,60,0.00,-SN,,0.00,WeatherDisplay:10.37,2013-04-04 23:35:00,
2013-04-04 19:40:00,36.0,24.6,29.90,SSE,160,6.9,6.9,63,0.00,-SN,,0.00,WeatherDisplay:10.37,2013-04-04 23:40:00,
2013-04-04 19:45:00,35.4,24.8,29.90,SSE,160,4.6,4.6,65,0.00,-SN,,0.00,WeatherDisplay:10.37,2013-04-04 23:45:00,
2013-04-04 19:50:00,35.2,25.4,29.90,SSE,160,4.6,4.6,67,0.00,-SN,,0.00,WeatherDisplay:10.37,2013-04-04 23:50:00,
2013-04-04 19:55:00,34.9,25.4,29.90,SSE,160,4.6,4.6,68,0.00,-SN,,0.00,WeatherDisplay:10.37,2013-04-04 23:55:00,
2013-04-04 20:00:00,34.7,25.6,29.90,SSE,150,4.6,4.6,69,0.00,-SN,,0.00,WeatherDisplay:10.37,2013-04-05 00:00:00,
2013-04-04 20:05:00,34.3,25.9,29.90,SSE,150,3.5,3.5,71,0.00,-SN,,0.00,WeatherDisplay:10.37,2013-04-05 00:05:00,
2013-04-04 20:10:00,34.3,26.2,29.89,SSE,150,3.5,3.5,72,0.00,-SN,,0.00,WeatherDisplay:10.37,2013-04-05 00:10:00,
2013-04-04 20:16:00,34.3,26.2,29.89,SSE,150,3.5,3.5,72,0.00,-SN,,0.00,WeatherDisplay:10.37,2013-04-05 00:16:00,
2013-04-04 20:21:00,34.2,26.4,29.89,SSE,150,3.5,0.0,73,0.00,OVC,,0.00,WeatherDisplay:10.37,2013-04-05 00:21:00,
2013-04-04 20:27:00,34.0,26.6,29.89,SSE,150,0.0,0.0,74,0.00,OVC,,0.00,WeatherDisplay:10.37,2013-04-05 00:27:00,
2013-04-04 20:32:00,34.0,26.9,29.88,SSE,150,0.0,0.0,75,0.00,OVC,,0.00,WeatherDisplay:10.37,2013-04-05 00:32:00,
2013-04-04 20:37:00,33.8,26.7,29.88,SSE,150,0.0,0.0,75,0.00,OVC,,0.00,WeatherDisplay:10.37,2013-04-05 00:37:00,
2013-04-04 20:42:00,34.0,26.9,29.88,SSE,150,0.0,0.0,75,0.00,OVC,,0.00,WeatherDisplay:10.37,2013-04-05 00:42:00,
2013-04-04 20:47:00,34.0,27.2,29.88,SSE,150,0.0,0.0,76,0.00,OVC,,0.02,WeatherDisplay:10.37,2013-04-05 00:47:00,
2013-04-04 20:52:00,33.8,27.0,29.88,SSE,150,0.0,0.0,76,0.02,RA,,0.02,WeatherDisplay:10.37,2013-04-05 00:52:00,
2013-04-04 20:57:00,33.8,27.0,29.88,SSE,150,0.0,0.0,76,0.02,RA,,0.04,WeatherDisplay:10.37,2013-04-05 00:57:00,
2013-04-04 21:02:00,33.8,27.4,29.89,SSE,150,0.0,0.0,77,0.04,RA,,0.04,WeatherDisplay:10.37,2013-04-05 01:02:00,
2013-04-04 21:07:00,33.8,27.4,29.89,SSE,150,0.0,0.0,77,0.04,RA,,0.04,WeatherDisplay:10.37,2013-04-05 01:07:00,
2013-04-04 21:12:00,33.6,27.5,29.88,SSE,150,0.0,0.0,78,0.04,OVC,,0.04,WeatherDisplay:10.37,2013-04-05 01:12:00,
2013-04-04 21:17:00,33.6,27.5,29.88,SSE,150,0.0,0.0,78,0.04,OVC,,0.06,WeatherDisplay:10.37,2013-04-05 01:17:00,
2013-04-04 21:22:00,33.6,27.5,29.87,SSE,150,0.0,0.0,78,0.06,RA,,0.06,WeatherDisplay:10.37,2013-04-05 01:22:00,
2013-04-04 21:27:00,33.6,27.8,29.87,SSE,150,0.0,0.0,79,0.06,RA,,0.06,WeatherDisplay:10.37,2013-04-05 01:27:00,
2013-04-04 21:32:00,33.6,27.8,29.87,SSE,150,0.0,0.0,79,0.08,RA,,0.08,WeatherDisplay:10.37,2013-04-05 01:32:00,
2013-04-04 21:37:00,33.6,27.8,29.88,SSE,150,0.0,0.0,79,0.08,RA,,0.08,WeatherDisplay:10.37,2013-04-05 01:37:00,
2013-04-04 21:42:00,33.6,28.1,29.87,SSE,150,0.0,0.0,80,0.08,-RA,,0.08,WeatherDisplay:10.37,2013-04-05 01:42:00,
2013-04-04 21:47:00,33.6,28.1,29.87,SSE,150,0.0,0.0,80,0.08,-RA,,0.08,WeatherDisplay:10.37,2013-04-05 01:47:00,
2013-04-04 21:52:00,33.6,28.1,29.87,SSE,150,0.0,0.0,80,0.06,-RA,,0.08,WeatherDisplay:10.37,2013-04-05 01:52:00,
2013-04-04 21:57:00,33.8,28.3,29.87,SSE,150,0.0,0.0,80,0.06,-RA,,0.08,WeatherDisplay:10.37,2013-04-05 01:57:00,
2013-04-04 22:02:00,33.8,28.3,29.87,SSE,150,0.0,0.0,80,0.04,-RA,,0.08,WeatherDisplay:10.37,2013-04-05 02:02:00,
2013-04-04 22:07:00,33.8,28.3,29.86,SSE,150,0.0,0.0,80,0.06,-RA,,0.10,WeatherDisplay:10.37,2013-04-05 02:07:00,
2013-04-04 22:12:00,33.8,28.3,29.86,SSE,150,0.0,0.0,80,0.06,-RA,,0.10,WeatherDisplay:10.37,2013-04-05 02:12:00,
2013-04-04 22:17:00,33.8,28.3,29.86,SSE,150,0.0,0.0,80,0.04,-RA,,0.10,WeatherDisplay:10.37,2013-04-05 02:17:00,
2013-04-04 22:22:00,33.8,28.3,29.85,SSE,150,0.0,0.0,80,0.06,-RA,,0.12,WeatherDisplay:10.37,2013-04-05 02:22:00,
2013-04-04 22:27:00,33.8,28.6,29.85,SSE,150,0.0,0.0,81,0.06,-RA,,0.12,WeatherDisplay:10.37,2013-04-05 02:27:00,
2013-04-04 22:32:00,34.0,28.8,29.85,SSE,150,0.0,0.0,81,0.04,-RA,,0.12,WeatherDisplay:10.37,2013-04-05 02:32:00,
2013-04-04 22:37:00,34.0,28.8,29.84,SSE,150,0.0,0.0,81,0.04,-RA,,0.12,WeatherDisplay:10.37,2013-04-05 02:37:00,
2013-04-04 22:42:00,34.0,28.8,29.83,SSE,150,0.0,0.0,81,0.04,-RA,,0.12,WeatherDisplay:10.37,2013-04-05 02:42:00,
2013-04-04 22:47:00,34.0,28.8,29.84,SSE,150,0.0,0.0,81,0.04,-RA,,0.12,WeatherDisplay:10.37,2013-04-05 02:47:00,
2013-04-04 22:52:00,34.0,28.8,29.83,SSE,150,0.0,0.0,81,0.04,-RA,,0.12,WeatherDisplay:10.37,2013-04-05 02:52:00,
2013-04-04 22:57:00,34.0,28.8,29.83,SSE,150,0.0,0.0,81,0.04,-RA,,0.12,WeatherDisplay:10.37,2013-04-05 02:57:00,
2013-04-04 23:02:00,34.2,28.9,29.83,SSE,150,0.0,0.0,81,0.04,-RA,,0.12,WeatherDisplay:10.37,2013-04-05 03:02:00,
2013-04-04 23:07:00,34.3,29.1,29.83,SSE,150,0.0,0.0,81,0.02,-RA,,0.12,WeatherDisplay:10.37,2013-04-05 03:07:00,
2013-04-04 23:12:00,34.2,28.9,29.82,SSE,150,0.0,0.0,81,0.04,-RA,,0.14,WeatherDisplay:10.37,2013-04-05 03:12:00,
2013-04-04 23:17:00,34.2,29.2,29.82,SSE,150,0.0,0.0,82,0.04,-RA,,0.14,WeatherDisplay:10.37,2013-04-05 03:17:00,
2013-04-04 23:22:00,34.2,29.2,29.82,SSE,150,0.0,0.0,82,0.02,OVC,,0.16,WeatherDisplay:10.37,2013-04-05 03:22:00,
2013-04-04 23:28:00,34.2,29.2,29.82,SSE,150,0.0,0.0,82,0.04,RA,,0.16,WeatherDisplay:10.37,2013-04-05 03:28:00,
2013-04-04 23:33:00,34.2,29.2,29.82,SSE,150,0.0,0.0,82,0.04,RA,,0.16,WeatherDisplay:10.37,2013-04-05 03:33:00,
2013-04-04 23:38:00,34.0,29.1,29.81,SSE,150,0.0,0.0,82,0.04,OVC,,0.16,WeatherDisplay:10.37,2013-04-05 03:38:00,
2013-04-04 23:43:00,34.0,29.1,29.81,SSE,150,0.0,0.0,82,0.04,OVC,,0.16,WeatherDisplay:10.37,2013-04-05 03:43:00,
2013-04-04 23:48:00,34.0,29.1,29.80,SSE,150,0.0,0.0,82,0.04,OVC,,0.16,WeatherDisplay:10.37,2013-04-05 03:48:00,
2013-04-04 23:53:00,34.0,29.1,29.80,SSE,150,0.0,0.0,82,0.04,OVC,,0.16,WeatherDisplay:10.37,2013-04-05 03:53:00,
2013-04-04 23:58:00,34.2,29.2,29.80,SSE,150,0.0,0.0,82,0.04,OVC,,0.16,WeatherDisplay:10.37,2013-04-05 03:58:00,